www.pogodaiklimat.ru

Погода и климат >> Архив погоды >> Украина >> Коломак


ПОГОДА в Коломаке

  • Прогноз погоды в Коломаке
  • Монитор погоды в Коломаке

АРХИВ ПОГОДЫ в Коломаке

Время (UTC), дата Ветер
(напр.,м/с)
 
Видим.   Явления Облачность Т
(С)
Тd
(С)
f
(%)
Тe
(С)
Тes
(С)
Комфортность P
(гПа)
Po
(гПа)
Тmin
(С)
Tmax
(С)
R
(мм)
R24
(мм)
S
(см)
21 12.06 В 2 10 км 4/3 600 м
[Cb calv Ci fib]
+23.8 +13.3 52 +26 +26 жарко 1014.5 993.9
00 13.06 В 3 10 км 8/0
[Cc]
+22.9 +15.0 61 +27 +27 душно 1014.5 993.9
03 13.06 В 2 10 км 9/0
[Ac trans Ci fib]
+22.8 +15.9 65 +27 +28 душно 1014.7 994.1
06 13.06 В 3 10 км 8/0
[Ac trans Ci fib]
+27.0 +17.5 56 +31 +37 душно 1015.5 995.1 +22.1
09 13.06 СВ 3 10 км 9/3 1000 м
[Cu med, cong Cc]
+30.5 +16.1 42 +34 +42 очень
душно
1015.5 995.4
12 13.06 В 4 10 км 8/3 1000 м
[Cu med, cong Ci fib]
+31.5 +14.8 36 +33 +39 жарко 1015.5 995.4
15 13.06 В 5 10 км 4/1 1000 м
[Cu med, cong Ci sp]
+29.6 +16.7 46 +33 +35 душно 1015.6 995.4
18 13.06 В 2 10 км 8/3 600 м
[Sc Ci]
+25.4 +16.9 59 +29 +29 душно 1018.0 997.5 +32.2
21 13.06 В 2 10 км ясно +22.1 +15.2 65 +26 +26 душно 1019.1 998.3
00 14.06 В 3 10 км ясно +19.7 +13.4 67 +22 +22 комфорт 1020.0 999.0
03 14.06 В 2 10 км ясно +18.0 +10.1 60 +19 +19 1020.0 998.9
06 14.06 В 3 10 км ясно +22.1 +11.1 50 +24 +32 комфорт 1020.3 999.5 +18.0
09 14.06 Ю 2 10 км ясно +26.6 +14.0 46 +29 +46 жарко 1019.9 999.4
12 14.06 З 1 10 км 3/3 1000 м
[Cu hum]
+28.7 +14.3 41 +31 +42 жарко 1018.8 998.5
15 14.06 С 1 10 км 3/0
[Ci fib]
+29.1 +14.6 41 +31 +35 жарко 1017.7 997.4
18 14.06 Ю 1 10 км ясно +24.2 +17.1 65 +28 +28 душно 1017.2 996.6 +29.4
21 14.06 ЮВ 1 10 км ясно +19.8 +14.1 70 +23 +23 комфорт 1018.0 997.1
00 15.06 штиль 0 10 км ясно +18.0 +14.4 79 +18 +18 1016.9 995.9
03 15.06 Ю 1 10 км 3/0
[Ci]
+18.2 +14.0 76 +20 +21 1016.5 995.5
06 15.06 СЗ 2 10 км 1/0
[Ci fib]
+26.0 +16.3 55 +29 +39 душно 1015.6 995.2 +16.9
09 15.06 З 1 10 км 3/1 1000 м
[Cu hum Ci fib]
+29.2 +16.6 47 +33 +50 очень
душно
1014.6 994.4
12 15.06 З 4 10 км 6/5 600 м
[Cb calv Ci fib]
+31.6 +17.2 42 +35 +40 очень
душно
1012.4 992.4
15 15.06 СЗ 2 10 км 8/0
[Ac trans Cs]
+26.6 +16.3 53 +30 +32 душно 1012.6 992.3
18 15.06 З 1 10 км 3/3 600 м
[Sc diur, vesp Ci fib]
+24.8 +17.3 63 +29 +29 душно 1012.2 991.7 +32.1
21 15.06 З 2 10 км 3/0
[Ac trans]
+20.6 +16.3 76 +24 +24 комфорт 1012.0 991.3
00 16.06 штиль 0 10 км 1/0
[Ac trans]
+18.3 +16.6 90 +19 +19 1012.2 991.3
03 16.06 СЗ 1 10 км ясно +17.5 +16.1 91 +19 +20 1011.9 990.9
06 16.06 С 3 10 км ясно +24.9 +19.1 70 +30 +38 душно 1011.7 991.3 +16.8
09 16.06 С 4 10 км 6/6 1000 м
[Cu med, cong]
+28.0 +16.3 49 +31 +36 душно 1011.6 991.4
12 16.06 С 5 10 км 4/4 1000 м
[Cu med, cong]
+29.4 +13.4 37 +31 +35 жарко 1010.9 990.8
15 16.06 С 4 10 км 3/3 1000 м
[Cu med, cong]
+27.8 +14.4 44 +30 +32 жарко 1011.1 990.9
18 16.06 СВ 2 10 км 1/0
[Ci fib]
+21.8 +14.7 64 +25 +25 комфорт 1012.9 992.2 +30.2
21 16.06 В 1 10 км ясно +18.8 +15.2 80 +21 +21 комфорт 1014.2 993.3
00 17.06 В 1 10 км ясно +17.4 +15.7 90 +18 +18 1015.1 994.1
03 17.06 штиль 0 10 км ясно +16.0 +15.1 94 +16 +17 1015.8 994.7
06 17.06 С 2 10 км 3/0
[Ci]
+23.1 +12.7 52 +26 +35 жарко 1016.5 995.8 +14.5
09 17.06 СВ 2 10 км 4/4 600 м
[Cu med, cong]
+26.3 +13.4 45 +28 +39 жарко 1015.9 995.5
12 17.06 СВ 2 10 км 4/4 600 м
[Cu med, cong]
+27.1 +17.4 55 +31 +39 душно 1015.0 994.6
15 17.06 С 1 10 км 4/0
[Ac trans]
+28.0 +11.8 37 +29 +32 жарко 1014.4 994.1
18 17.06 штиль 0 10 км ясно +22.9 +14.8 60 +27 +27 душно 1015.0 994.4 +28.3
00 18.06 штиль 0 10 км ясно +17.8 +14.3 80 +18 +18 1015.9 994.9
06 18.06 СЗ 2 10 км 4/0
[Ci sp]
+26.0 +11.7 41 +27 +36 жарко 1015.3 994.9 +16.7
12 18.06 СЗ 3 10 км 6/5 600 м
[Cb calv Ci sp]
+30.6 +14.6 38 +33 +38 душно 1013.5 993.4
15 18.06 З 3 10 км {гроза, ливн. осадки} 8/4 600 м
[Cb calv Ci ing]
+28.7 +17.9 52 +33 +35 очень
душно
1013.4 993.2
18 18.06 СЗ 2 10 км {гроза, ливн. осадки} 3/0
[Ci fib]
+24.4 +18.7 71 +29 +29 душно 1013.4 992.9 +31.6 0.0
00 19.06 С 1 10 км ясно +17.9 +15.9 88 +19 +19 1014.7 993.7
06 19.06 СВ 3 10 км ясно +23.9 +17.5 67 +28 +36 душно 1014.4 993.8 +16.4

 

Местоположение метеостанции Коломак (Харьковская область, Украина): широта 49.85 долгота 35.23 высота над уровнем моря 178 м.

В архиве по умолчанию представлена погода в Коломаке за последнюю неделю. Архивные данные за месяц целиком и за предыдущие месяцы, начиная с января 2011 года, Вы можете получить, выбрав интересующий диапазон дат из раскрывающегося списка и нажав кнопку "Ввод!".


*Определитесь, кто Вы:
робот инопланетянин человек

Внимание! Время в таблицах - всемирное. Для получения местного времени необходимо прибавить поправку, которая равна 2 ч.

Смотрите также архив погоды в соседних городах и на ближайших метеорологических станциях:

Погода в Боходухове (Харьковская область, Украина) (44 км)
Погода в Краснограде (Харьковская область, Украина) (55 км)
Погода в Полтаве (Полтавская область, Украина) (56 км)
Погода в Харькове (Харьковская область, Украина) (66 км)
Погода в Золочеве (Львовская область, Украина) (72 км)
Погода в Лебедине (Сумская область, Украина) (97 км)
Погода в Комсомольском (Донецкая область, Украина) (98 км)
Погода в Гадяче (Полтавская область, Украина) (106 км)
Погода в Кобеляках (Полтавская область, Украина) (108 км)
Погода в Готне (Белгородская область, Россия) (112 км)

Пояснения к столбцам:

Ветер - указаны скорость ветра в м/с - средняя за 10 мин, порывы в срок и между сроками (в фигурных скобках) и направление, откуда дует ветер: С - северный, СВ - северо-восточный, В - восточный, ЮВ - юго-восточный, Ю - южный, ЮЗ - юго-западный, З - западный, СЗ - северо-западный.
Видимость - горизонтальная дальность видимости в метрах или километрах. При видимости от 1 до 10 км при отсутствии осадков обычно наблюдается дымка, при ухудшении видимости до 1 км и менее - туман. В сухую погоду видимость может ухудшаться дымом, пылью или мглою.
Явления - указаны атмосферные явления, наблюдавшиеся в срок или в последний час перед сроком; фигурными скобками обозначены явления, наблюдавшиеся между сроками (за 1-3 часа до срока); квадратными скобками обозначены град или гололедные отложения с указанием их диаметра в мм.
Облачность - указаны через наклонную черту общая и нижняя облачность в баллах и высота нижней границы облаков в метрах; квадратными скобками обозначены формы облаков: Ci - перистые, Cs - перисто-слоистые, Cc - перисто-кучевые, Ac - высококучевые, As - высокослоистые, Sc - слоисто-кучевые, Ns - слоисто-дождевые, Cu - кучевые, Cb - кучево-дождевые. Подробнее классификацию облаков см. в Атласе облаков (PDF).
T - Температура воздуха - температура, измеренная на высоте 2 м над землей.
Td - Температура точки росы - температура, при понижении до которой содержащийся в воздухе водяной пар достигнет насыщения.
f - Относительная влажность воздуха - влажноcть воздуха, измеренная на высоте 2 м над землей.
Te - Эффективная температура - температура, которую ощущает одетый по сезону человек в тени. Характеристика душности погоды. При расчете учитывается влияние влажности воздуха и скорости ветра на теплоощущения человека.
Tes - Эффективная температура на солнце - температура, которую ощущает человек, с поправкой на солнечный нагрев. Характеристика знойности погоды. Зависит от высоты солнца над горизонтом, облачности и скорости ветра. Ночью, в пасмурную погоду, а также при ветре 12 м/с и более поправка равна нулю.
P - Атмосферное давление - приведенное к уровню моря атмосферное давление.
Po - Атмосферное давление - измеренное на уровне метеостанции атмосферное давление.
Tmin - Минимальная температура - минимум температуры воздуха на высоте 2 м над землей.
Tmax - Максимальная температура - максимум температуры воздуха на высоте 2 м над землей.
R - Количество осадков - Количество выпавших осадков за период времени, мм. При наведении курсора мыши на число - период времени, за который выпало указанное количество осадков.
R24 - Количество осадков - Количество выпавших осадков за 24 часа, мм.
S - Снежный покров - Высота снежного покрова, см. При наведении курсора мыши на число - состояние снежного покрова и степень покрытия местности в баллах.